Location: East Arcadia
(34.1056°N, 118.0176°W)
Time: 01:13:39
(UTC+00:00)

GP-B - Pass Details

Date: 01 April 2023
Orbit: 629 x 631 km, 89.8° (Epoch: 08 June)

Event Time Altitude Azimuth Distance (km) Brightness Sun altitude
Rises 13:03:13 0° 343° (NNW) 2,930 6.5 -8.3°
Reaches altitude 10° 13:05:57 10° 326° (NNW) 2,018 5.5 -7.7°
Maximum altitude 13:09:05 19° 281° (W) 1,497 4.5 -7.1°
Drops below altitude 10° 13:12:12 10° 236° (SW) 2,008 5.1 -6.4°
Sets 13:14:55 0° 218° (SW) 2,911 6.1 -5.9°
